Year,Month,Day,Hour,Minute,Value (Times are PST for temperature in C)
2021,08,12,00,00,20.10
2021,08,12,00,01,20.10
2021,08,12,00,02,20.10
2021,08,12,00,03,20.00
2021,08,12,00,04,20.00
2021,08,12,00,05,20.00
2021,08,12,00,06,20.00
2021,08,12,00,07,20.00
2021,08,12,00,08,20.00
2021,08,12,00,09,20.00
2021,08,12,00,10,20.00
2021,08,12,00,11,20.00
2021,08,12,00,12,20.00
2021,08,12,00,13,20.00
2021,08,12,00,14,20.00
2021,08,12,00,15,20.00
2021,08,12,00,16,19.90
2021,08,12,00,17,19.90
2021,08,12,00,18,19.90
2021,08,12,00,19,19.90
2021,08,12,00,20,19.90
2021,08,12,00,21,19.90
2021,08,12,00,22,19.90
2021,08,12,00,23,19.90
2021,08,12,00,24,19.90
2021,08,12,00,25,19.90
2021,08,12,00,26,19.90
2021,08,12,00,27,19.90
2021,08,12,00,28,19.90
2021,08,12,00,29,19.90
2021,08,12,00,30,19.90
2021,08,12,00,31,19.90
2021,08,12,00,32,19.90
2021,08,12,00,33,19.90
2021,08,12,00,34,19.90
2021,08,12,00,35,19.80
2021,08,12,00,36,19.80
2021,08,12,00,37,19.80
2021,08,12,00,38,19.80
2021,08,12,00,39,19.80
2021,08,12,00,40,19.80
2021,08,12,00,41,19.80
2021,08,12,00,42,19.80
2021,08,12,00,43,19.80
2021,08,12,00,44,19.80
2021,08,12,00,45,19.80
2021,08,12,00,46,19.80
2021,08,12,00,47,19.80
2021,08,12,00,48,19.80
2021,08,12,00,49,19.80
2021,08,12,00,50,19.70
2021,08,12,00,51,19.70
2021,08,12,00,52,19.70
2021,08,12,00,53,19.70
2021,08,12,00,54,19.70
2021,08,12,00,55,19.70
2021,08,12,00,56,19.70
2021,08,12,00,57,19.70
2021,08,12,00,58,19.70
2021,08,12,00,59,19.70
2021,08,12,01,00,19.70
2021,08,12,01,01,19.70
2021,08,12,01,02,19.70
2021,08,12,01,03,19.70
2021,08,12,01,04,19.70
2021,08,12,01,05,19.70
2021,08,12,01,06,19.70
2021,08,12,01,07,19.60
2021,08,12,01,08,19.60
2021,08,12,01,09,19.60
2021,08,12,01,10,19.60
2021,08,12,01,11,19.60
2021,08,12,01,12,19.60
2021,08,12,01,13,19.60
2021,08,12,01,14,19.60
2021,08,12,01,15,19.60
2021,08,12,01,16,19.60
2021,08,12,01,17,19.60
2021,08,12,01,18,19.50
2021,08,12,01,19,19.50
2021,08,12,01,20,19.50
2021,08,12,01,21,19.50
2021,08,12,01,22,19.50
2021,08,12,01,23,19.50
2021,08,12,01,24,19.50
2021,08,12,01,25,19.50
2021,08,12,01,26,19.50
2021,08,12,01,27,19.50
2021,08,12,01,28,19.50
2021,08,12,01,29,19.50
2021,08,12,01,30,19.50
2021,08,12,01,31,19.50
2021,08,12,01,32,19.40
2021,08,12,01,33,19.40
2021,08,12,01,34,19.40
2021,08,12,01,35,19.40
2021,08,12,01,36,19.40
2021,08,12,01,37,19.40
2021,08,12,01,38,19.40
2021,08,12,01,39,19.40
2021,08,12,01,40,19.30
2021,08,12,01,41,19.30
2021,08,12,01,42,19.30
2021,08,12,01,43,19.30
2021,08,12,01,44,19.30
2021,08,12,01,45,19.30
2021,08,12,01,46,19.30
2021,08,12,01,47,19.20
2021,08,12,01,48,19.20
2021,08,12,01,49,19.20
2021,08,12,01,50,19.20
2021,08,12,01,51,19.20
2021,08,12,01,52,19.20
2021,08,12,01,53,19.20
2021,08,12,01,54,19.20
2021,08,12,01,55,19.10
2021,08,12,01,56,19.10
2021,08,12,01,57,19.10
2021,08,12,01,58,19.10
2021,08,12,01,59,19.10
2021,08,12,02,00,19.10
2021,08,12,02,01,19.10
2021,08,12,02,02,19.10
2021,08,12,02,03,19.00
2021,08,12,02,04,19.00
2021,08,12,02,05,19.00
2021,08,12,02,06,19.00
2021,08,12,02,07,18.90
2021,08,12,02,08,18.90
2021,08,12,02,09,18.90
2021,08,12,02,10,18.90
2021,08,12,02,11,18.90
2021,08,12,02,12,18.90
2021,08,12,02,13,18.80
2021,08,12,02,14,18.80
2021,08,12,02,15,18.80
2021,08,12,02,16,18.80
2021,08,12,02,17,18.80
2021,08,12,02,18,18.80
2021,08,12,02,19,18.80
2021,08,12,02,20,18.70
2021,08,12,02,21,18.70
2021,08,12,02,22,18.70
2021,08,12,02,23,18.70
2021,08,12,02,24,18.70
2021,08,12,02,25,18.70
2021,08,12,02,26,18.70
2021,08,12,02,27,18.70
2021,08,12,02,28,18.70
2021,08,12,02,29,18.60
2021,08,12,02,30,18.60
2021,08,12,02,31,18.60
2021,08,12,02,32,18.60
2021,08,12,02,33,18.60
2021,08,12,02,34,18.60
2021,08,12,02,35,18.60
2021,08,12,02,36,18.60
2021,08,12,02,37,18.60
2021,08,12,02,38,18.50
2021,08,12,02,39,18.50
2021,08,12,02,40,18.50
2021,08,12,02,41,18.50
2021,08,12,02,42,18.50
2021,08,12,02,43,18.40
2021,08,12,02,44,18.40
2021,08,12,02,45,18.40
2021,08,12,02,46,18.40
2021,08,12,02,47,18.40
2021,08,12,02,48,18.40
2021,08,12,02,49,18.40
2021,08,12,02,50,18.40
2021,08,12,02,51,18.30
2021,08,12,02,52,18.30
2021,08,12,02,53,18.30
2021,08,12,02,54,18.30
2021,08,12,02,55,18.30
2021,08,12,02,56,18.30
2021,08,12,02,57,18.30
2021,08,12,02,58,18.30
2021,08,12,02,59,18.30
2021,08,12,03,00,18.30
2021,08,12,03,01,18.20
2021,08,12,03,02,18.20
2021,08,12,03,03,18.20
2021,08,12,03,04,18.20
2021,08,12,03,05,18.20
2021,08,12,03,06,18.20
2021,08,12,03,07,18.20
2021,08,12,03,08,18.20
2021,08,12,03,09,18.20
2021,08,12,03,10,18.20
2021,08,12,03,11,18.20
2021,08,12,03,12,18.10
2021,08,12,03,13,18.10
2021,08,12,03,14,18.10
2021,08,12,03,15,18.10
2021,08,12,03,16,18.10
2021,08,12,03,17,18.10
2021,08,12,03,18,18.10
2021,08,12,03,19,18.10
2021,08,12,03,20,18.10
2021,08,12,03,21,18.10
2021,08,12,03,22,18.10
2021,08,12,03,23,18.10
2021,08,12,03,24,18.10
2021,08,12,03,25,18.10
2021,08,12,03,26,18.10
2021,08,12,03,27,18.00
2021,08,12,03,28,18.00
2021,08,12,03,29,18.00
2021,08,12,03,30,18.00
2021,08,12,03,31,18.00
2021,08,12,03,32,18.00
2021,08,12,03,33,18.00
2021,08,12,03,34,18.00
2021,08,12,03,35,18.00
2021,08,12,03,36,18.00
2021,08,12,03,37,18.00
2021,08,12,03,38,18.00
2021,08,12,03,39,17.90
2021,08,12,03,40,17.90
2021,08,12,03,41,17.90
2021,08,12,03,42,17.90
2021,08,12,03,43,17.90
2021,08,12,03,44,17.90
2021,08,12,03,45,17.90
2021,08,12,03,46,17.90
2021,08,12,03,47,17.90
2021,08,12,03,48,17.90
2021,08,12,03,49,17.90
2021,08,12,03,50,17.90
2021,08,12,03,51,17.90
2021,08,12,03,52,17.90
2021,08,12,03,53,17.90
2021,08,12,03,54,17.90
2021,08,12,03,55,17.90
2021,08,12,03,56,17.90
2021,08,12,03,57,17.90
2021,08,12,03,58,17.90
2021,08,12,03,59,17.90
2021,08,12,04,00,17.90
2021,08,12,04,01,17.90
2021,08,12,04,02,17.90
2021,08,12,04,03,17.90
2021,08,12,04,04,18.00
2021,08,12,04,05,18.00
2021,08,12,04,06,18.00
2021,08,12,04,07,18.00
2021,08,12,04,08,18.00
2021,08,12,04,09,18.00
2021,08,12,04,10,18.00
2021,08,12,04,11,18.00
2021,08,12,04,12,18.00
2021,08,12,04,13,18.00
2021,08,12,04,14,18.00
2021,08,12,04,15,18.00
2021,08,12,04,16,18.00
2021,08,12,04,17,18.00
2021,08,12,04,18,18.00
2021,08,12,04,19,18.00
2021,08,12,04,20,18.00
2021,08,12,04,21,18.00
2021,08,12,04,22,18.00
2021,08,12,04,23,18.00
2021,08,12,04,24,18.00
2021,08,12,04,25,18.00
2021,08,12,04,26,18.00
2021,08,12,04,27,18.00
2021,08,12,04,28,18.00
2021,08,12,04,29,18.00
2021,08,12,04,30,18.00
2021,08,12,04,31,18.00
2021,08,12,04,32,18.10
2021,08,12,04,33,18.10
2021,08,12,04,34,18.10
2021,08,12,04,35,18.10
2021,08,12,04,36,18.10
2021,08,12,04,37,18.10
2021,08,12,04,38,18.10
2021,08,12,04,39,18.10
2021,08,12,04,40,18.10
2021,08,12,04,41,18.10
2021,08,12,04,42,18.10
2021,08,12,04,43,18.10
2021,08,12,04,44,18.10
2021,08,12,04,45,18.20
2021,08,12,04,46,18.20
2021,08,12,04,47,18.20
2021,08,12,04,48,18.20
2021,08,12,04,49,18.20
2021,08,12,04,50,18.20
2021,08,12,04,51,18.20
2021,08,12,04,52,18.20
2021,08,12,04,53,18.20
2021,08,12,04,54,18.20
2021,08,12,04,55,18.20
2021,08,12,04,56,18.20
2021,08,12,04,57,18.20
2021,08,12,04,58,18.20
2021,08,12,04,59,18.20
2021,08,12,05,00,18.20
2021,08,12,05,01,18.20
2021,08,12,05,02,18.20
2021,08,12,05,03,18.20
2021,08,12,05,04,18.20
2021,08,12,05,05,18.20
2021,08,12,05,06,18.20
2021,08,12,05,07,18.20
2021,08,12,05,08,18.20
2021,08,12,05,09,18.20
2021,08,12,05,10,18.20
2021,08,12,05,11,18.20
2021,08,12,05,12,18.20
2021,08,12,05,13,18.10
2021,08,12,05,14,18.10
2021,08,12,05,15,18.10
2021,08,12,05,16,18.10
2021,08,12,05,17,18.10
2021,08,12,05,18,18.10
2021,08,12,05,19,18.10
2021,08,12,05,20,18.10
2021,08,12,05,21,18.10
2021,08,12,05,22,18.10
2021,08,12,05,23,18.00
2021,08,12,05,24,18.00
2021,08,12,05,25,18.00
2021,08,12,05,26,18.00
2021,08,12,05,27,18.00
2021,08,12,05,28,18.00
2021,08,12,05,29,18.00
2021,08,12,05,30,18.00
2021,08,12,05,31,17.90
2021,08,12,05,32,17.90
2021,08,12,05,33,17.90
2021,08,12,05,34,17.90
2021,08,12,05,35,17.90
2021,08,12,05,36,17.90
2021,08,12,05,37,17.90
2021,08,12,05,38,17.90
2021,08,12,05,39,17.90
2021,08,12,05,40,17.90
2021,08,12,05,41,17.90
2021,08,12,05,42,17.80
2021,08,12,05,43,17.80
2021,08,12,05,44,17.80
2021,08,12,05,45,17.80
2021,08,12,05,46,17.80
2021,08,12,05,47,17.80
2021,08,12,05,48,17.80
2021,08,12,05,49,17.80
2021,08,12,05,50,17.80
2021,08,12,05,51,17.80
2021,08,12,05,52,17.80
2021,08,12,05,53,17.80
2021,08,12,05,54,17.80
2021,08,12,05,55,17.80
2021,08,12,05,56,17.80
2021,08,12,05,57,17.80
2021,08,12,05,58,17.80
2021,08,12,05,59,17.80
2021,08,12,06,00,17.80
2021,08,12,06,01,17.80
2021,08,12,06,02,17.80
2021,08,12,06,03,17.80
2021,08,12,06,04,17.80
2021,08,12,06,05,17.70
2021,08,12,06,06,17.70
2021,08,12,06,07,17.70
2021,08,12,06,08,17.70
2021,08,12,06,09,17.70
2021,08,12,06,10,17.70
2021,08,12,06,11,17.70
2021,08,12,06,12,17.70
2021,08,12,06,13,17.70
2021,08,12,06,14,17.70
2021,08,12,06,15,17.70
2021,08,12,06,16,17.70
2021,08,12,06,17,17.70
2021,08,12,06,18,17.70
2021,08,12,06,19,17.70
2021,08,12,06,20,17.70
2021,08,12,06,21,17.70
2021,08,12,06,22,17.70
2021,08,12,06,23,17.70
2021,08,12,06,24,17.70
2021,08,12,06,25,17.70
2021,08,12,06,26,17.70
2021,08,12,06,27,17.70
2021,08,12,06,28,17.70
2021,08,12,06,29,17.70
2021,08,12,06,30,17.70
2021,08,12,06,31,17.70
2021,08,12,06,32,17.60
2021,08,12,06,33,17.60
2021,08,12,06,34,17.60
2021,08,12,06,35,17.60
2021,08,12,06,36,17.60
2021,08,12,06,37,17.60
2021,08,12,06,38,17.60
2021,08,12,06,39,17.60
2021,08,12,06,40,17.60
2021,08,12,06,41,17.60
2021,08,12,06,42,17.60
2021,08,12,06,43,17.60
2021,08,12,06,44,17.60
2021,08,12,06,45,17.60
2021,08,12,06,46,17.60
2021,08,12,06,47,17.60
2021,08,12,06,48,17.60
2021,08,12,06,49,17.60
2021,08,12,06,50,17.60
2021,08,12,06,51,17.60
2021,08,12,06,52,17.60
2021,08,12,06,53,17.60
2021,08,12,06,54,17.60
2021,08,12,06,55,17.60
2021,08,12,06,56,17.60
2021,08,12,06,57,17.60
2021,08,12,06,58,17.60
2021,08,12,06,59,17.60
2021,08,12,07,00,17.60
2021,08,12,07,01,17.60
2021,08,12,07,02,17.60
2021,08,12,07,03,17.60
2021,08,12,07,04,17.60
2021,08,12,07,05,17.60
2021,08,12,07,06,17.60
2021,08,12,07,07,17.60
2021,08,12,07,08,17.60
2021,08,12,07,09,17.70
2021,08,12,07,10,17.70
2021,08,12,07,11,17.70
2021,08,12,07,12,17.70
2021,08,12,07,13,17.70
2021,08,12,07,14,17.70
2021,08,12,07,15,17.70
2021,08,12,07,16,17.70
2021,08,12,07,17,17.70
2021,08,12,07,18,17.70
2021,08,12,07,19,17.70
2021,08,12,07,20,17.70
2021,08,12,07,21,17.70
2021,08,12,07,22,17.70
2021,08,12,07,23,17.80
2021,08,12,07,24,17.80
2021,08,12,07,25,17.80
2021,08,12,07,26,17.80
2021,08,12,07,27,17.80
2021,08,12,07,28,17.80
2021,08,12,07,29,17.80
2021,08,12,07,30,17.90
2021,08,12,07,31,17.90
2021,08,12,07,32,17.90
2021,08,12,07,33,17.90
2021,08,12,07,34,17.90
2021,08,12,07,35,17.90
2021,08,12,07,36,18.00
2021,08,12,07,37,18.00
2021,08,12,07,38,18.00
2021,08,12,07,39,18.10
2021,08,12,07,40,18.10
2021,08,12,07,41,18.10
2021,08,12,07,42,18.10
2021,08,12,07,43,18.20
2021,08,12,07,44,18.20
2021,08,12,07,45,18.20
2021,08,12,07,46,18.20
2021,08,12,07,47,18.20
2021,08,12,07,48,18.30
2021,08,12,07,49,18.30
2021,08,12,07,50,18.30
2021,08,12,07,51,18.40
2021,08,12,07,52,18.40
2021,08,12,07,53,18.40
2021,08,12,07,54,18.50
2021,08,12,07,55,18.50
2021,08,12,07,56,18.60
2021,08,12,07,57,18.60
2021,08,12,07,58,18.60
2021,08,12,07,59,18.70
2021,08,12,08,00,18.70
2021,08,12,08,01,18.70
2021,08,12,08,02,18.70
2021,08,12,08,03,18.80
2021,08,12,08,04,18.80
2021,08,12,08,05,18.80
2021,08,12,08,06,18.80
2021,08,12,08,07,18.90
2021,08,12,08,08,18.90
2021,08,12,08,09,18.90
2021,08,12,08,10,19.00
2021,08,12,08,11,19.00
2021,08,12,08,12,19.00
2021,08,12,08,13,19.10
2021,08,12,08,14,19.10
2021,08,12,08,15,19.20
2021,08,12,08,16,19.20
2021,08,12,08,17,19.20
2021,08,12,08,18,19.30
2021,08,12,08,19,19.40
2021,08,12,08,20,19.50
2021,08,12,08,21,19.50
2021,08,12,08,22,19.60
2021,08,12,08,23,19.60
2021,08,12,08,24,19.70
2021,08,12,08,25,19.80
2021,08,12,08,26,19.80
2021,08,12,08,27,19.90
2021,08,12,08,28,20.00
2021,08,12,08,29,20.10
2021,08,12,08,30,20.20
2021,08,12,08,31,20.30
2021,08,12,08,32,20.30
2021,08,12,08,33,20.40
2021,08,12,08,34,20.50
2021,08,12,08,35,20.60
2021,08,12,08,36,20.70
2021,08,12,08,37,20.80
2021,08,12,08,38,20.90
2021,08,12,08,39,21.00
2021,08,12,08,40,21.10
2021,08,12,08,41,21.20
2021,08,12,08,42,21.30
2021,08,12,08,43,21.40
2021,08,12,08,44,21.50
2021,08,12,08,45,21.60
2021,08,12,08,46,21.60
2021,08,12,08,47,21.70
2021,08,12,08,48,21.80
2021,08,12,08,49,21.90
2021,08,12,08,50,22.00
2021,08,12,08,51,22.10
2021,08,12,08,52,22.20
2021,08,12,08,53,22.20
2021,08,12,08,54,22.30
2021,08,12,08,55,22.40
2021,08,12,08,56,22.50
2021,08,12,08,57,22.60
2021,08,12,08,58,22.60
2021,08,12,08,59,22.70
2021,08,12,09,00,22.70
2021,08,12,09,01,22.80
2021,08,12,09,02,22.80
2021,08,12,09,03,22.90
2021,08,12,09,04,23.00
2021,08,12,09,05,23.10
2021,08,12,09,06,23.10
2021,08,12,09,07,23.20
2021,08,12,09,08,23.20
2021,08,12,09,09,23.30
2021,08,12,09,10,23.30
2021,08,12,09,11,23.30
2021,08,12,09,12,23.30
2021,08,12,09,13,23.40
2021,08,12,09,14,23.40
2021,08,12,09,15,23.40
2021,08,12,09,16,23.40
2021,08,12,09,17,23.50
2021,08,12,09,18,23.50
2021,08,12,09,19,23.50
2021,08,12,09,20,23.60
2021,08,12,09,21,23.60
2021,08,12,09,22,23.70
2021,08,12,09,23,23.70
2021,08,12,09,24,23.80
2021,08,12,09,25,23.80
2021,08,12,09,26,23.90
2021,08,12,09,27,24.00
2021,08,12,09,28,24.10
2021,08,12,09,29,24.20
2021,08,12,09,30,24.30
2021,08,12,09,31,24.40
2021,08,12,09,32,24.50
2021,08,12,09,33,24.60
2021,08,12,09,34,24.60
2021,08,12,09,35,24.70
2021,08,12,09,36,24.80
2021,08,12,09,37,24.80
2021,08,12,09,38,24.90
2021,08,12,09,39,25.00
2021,08,12,09,40,25.10
2021,08,12,09,41,25.10
2021,08,12,09,42,25.20
2021,08,12,09,43,25.20
2021,08,12,09,44,25.30
2021,08,12,09,45,25.30
2021,08,12,09,46,25.40
2021,08,12,09,47,25.40
2021,08,12,09,48,25.50
2021,08,12,09,49,25.50
2021,08,12,09,50,25.60
2021,08,12,09,51,25.70
2021,08,12,09,52,25.70
2021,08,12,09,53,25.80
2021,08,12,09,54,25.90
2021,08,12,09,55,26.00
2021,08,12,09,56,26.10
2021,08,12,09,57,26.20
2021,08,12,09,58,26.30
2021,08,12,09,59,26.30
2021,08,12,10,00,26.40
2021,08,12,10,01,26.60
2021,08,12,10,02,26.60
2021,08,12,10,03,26.80
2021,08,12,10,04,26.90
2021,08,12,10,05,27.10
2021,08,12,10,06,27.20
2021,08,12,10,07,27.30
2021,08,12,10,08,27.40
2021,08,12,10,09,27.40
2021,08,12,10,10,27.50
2021,08,12,10,11,27.60
2021,08,12,10,12,27.70
2021,08,12,10,13,27.80
2021,08,12,10,14,27.90
2021,08,12,10,15,27.90
2021,08,12,10,16,28.00
2021,08,12,10,17,28.10
2021,08,12,10,18,28.10
2021,08,12,10,19,28.10
2021,08,12,10,20,28.20
2021,08,12,10,21,28.30
2021,08,12,10,22,28.30
2021,08,12,10,23,28.40
2021,08,12,10,24,28.50
2021,08,12,10,25,28.60
2021,08,12,10,26,28.70
2021,08,12,10,27,28.80
2021,08,12,10,28,28.90
2021,08,12,10,29,29.00
2021,08,12,10,30,29.10
2021,08,12,10,31,29.20
2021,08,12,10,32,29.30
2021,08,12,10,33,29.30
2021,08,12,10,34,29.40
2021,08,12,10,35,29.50
2021,08,12,10,36,29.50
2021,08,12,10,37,29.60
2021,08,12,10,38,29.70
2021,08,12,10,39,29.70
2021,08,12,10,40,29.80
2021,08,12,10,41,29.80
2021,08,12,10,42,29.90
2021,08,12,10,43,30.00
2021,08,12,10,44,30.00
2021,08,12,10,45,30.10
2021,08,12,10,46,30.10
2021,08,12,10,47,30.20
2021,08,12,10,48,30.30
2021,08,12,10,49,30.30
2021,08,12,10,50,30.40
2021,08,12,10,51,30.40
2021,08,12,10,52,30.50
2021,08,12,10,53,30.60
2021,08,12,10,54,30.60
2021,08,12,10,55,30.70
2021,08,12,10,56,30.70
2021,08,12,10,57,30.80
2021,08,12,10,58,30.90
2021,08,12,10,59,30.90
2021,08,12,11,00,31.00
2021,08,12,11,01,31.10
2021,08,12,11,02,31.10
2021,08,12,11,03,31.20
2021,08,12,11,04,31.20
2021,08,12,11,05,31.20
2021,08,12,11,06,31.20
2021,08,12,11,07,31.20
2021,08,12,11,08,31.30
2021,08,12,11,09,31.40
2021,08,12,11,10,31.50
2021,08,12,11,11,31.60
2021,08,12,11,12,31.60
2021,08,12,11,13,31.60
2021,08,12,11,14,31.70
2021,08,12,11,15,31.70
2021,08,12,11,16,31.80
2021,08,12,11,17,31.80
2021,08,12,11,18,31.80
2021,08,12,11,19,31.80
2021,08,12,11,20,31.90
2021,08,12,11,21,31.90
2021,08,12,11,22,32.00
2021,08,12,11,23,32.00
2021,08,12,11,24,32.10
2021,08,12,11,25,32.20
2021,08,12,11,26,32.20
2021,08,12,11,27,32.20
2021,08,12,11,28,32.20
2021,08,12,11,29,32.30
2021,08,12,11,30,32.30
2021,08,12,11,31,32.30
2021,08,12,11,32,32.30
2021,08,12,11,33,32.30
2021,08,12,11,34,32.30
2021,08,12,11,35,32.30
2021,08,12,11,36,32.40
2021,08,12,11,37,32.50
2021,08,12,11,38,32.50
2021,08,12,11,39,32.50
2021,08,12,11,40,32.50
2021,08,12,11,41,32.40
2021,08,12,11,42,32.40
2021,08,12,11,43,32.30
2021,08,12,11,44,32.30
2021,08,12,11,45,32.30
2021,08,12,11,46,32.30
2021,08,12,11,47,32.20
2021,08,12,11,48,32.20
2021,08,12,11,49,32.20
2021,08,12,11,50,32.20
2021,08,12,11,51,32.20
2021,08,12,11,52,32.20
2021,08,12,11,53,32.20
2021,08,12,11,54,32.30
2021,08,12,11,55,32.30
2021,08,12,11,56,32.30
2021,08,12,11,57,32.40
2021,08,12,11,58,32.40
2021,08,12,11,59,32.50
2021,08,12,12,00,32.60
2021,08,12,12,01,32.70
2021,08,12,12,02,32.70
2021,08,12,12,03,32.70
2021,08,12,12,04,32.70
2021,08,12,12,05,32.80
2021,08,12,12,06,32.80
2021,08,12,12,07,32.80
2021,08,12,12,08,32.70
2021,08,12,12,09,32.60
2021,08,12,12,10,32.60
2021,08,12,12,11,32.50
2021,08,12,12,12,32.50
2021,08,12,12,13,32.40
2021,08,12,12,14,32.40
2021,08,12,12,15,32.30
2021,08,12,12,16,32.30
2021,08,12,12,17,32.30
2021,08,12,12,18,32.30
2021,08,12,12,19,32.30
2021,08,12,12,20,32.30
2021,08,12,12,21,32.30
2021,08,12,12,22,32.40
2021,08,12,12,23,32.40
2021,08,12,12,24,32.40
2021,08,12,12,25,32.50
2021,08,12,12,26,32.60
2021,08,12,12,27,32.60
2021,08,12,12,28,32.70
2021,08,12,12,29,32.70
2021,08,12,12,30,32.80
2021,08,12,12,31,32.80
2021,08,12,12,32,32.80
2021,08,12,12,33,32.80
2021,08,12,12,34,32.80
2021,08,12,12,35,32.80
2021,08,12,12,36,32.80
2021,08,12,12,37,32.80
2021,08,12,12,38,32.80
2021,08,12,12,39,32.90
2021,08,12,12,40,32.90
2021,08,12,12,41,32.90
2021,08,12,12,42,32.90
2021,08,12,12,43,33.00
2021,08,12,12,44,33.10
2021,08,12,12,45,33.10
2021,08,12,12,46,33.20
2021,08,12,12,47,33.20
2021,08,12,12,48,33.30
2021,08,12,12,49,33.30
2021,08,12,12,50,33.40
2021,08,12,12,51,33.50
2021,08,12,12,52,33.60
2021,08,12,12,53,33.70
2021,08,12,12,54,33.80
2021,08,12,12,55,33.90
2021,08,12,12,56,34.10
2021,08,12,12,57,34.10
2021,08,12,12,58,34.20
2021,08,12,12,59,34.20
2021,08,12,13,00,34.20
2021,08,12,13,01,34.30
2021,08,12,13,02,34.20
2021,08,12,13,03,34.20
2021,08,12,13,04,34.20
2021,08,12,13,05,34.20
2021,08,12,13,06,34.30
2021,08,12,13,07,34.30
2021,08,12,13,08,34.40
2021,08,12,13,09,34.40
2021,08,12,13,10,34.40
2021,08,12,13,11,34.40
2021,08,12,13,12,34.40
2021,08,12,13,13,34.30
2021,08,12,13,14,34.30
2021,08,12,13,15,34.30
2021,08,12,13,16,34.40
2021,08,12,13,17,34.40
2021,08,12,13,18,34.50
2021,08,12,13,19,34.60
2021,08,12,13,20,34.60
2021,08,12,13,21,34.60
2021,08,12,13,22,34.60
2021,08,12,13,23,34.70
2021,08,12,13,24,34.80
2021,08,12,13,25,34.80
2021,08,12,13,26,34.80
2021,08,12,13,27,34.80
2021,08,12,13,28,34.80
2021,08,12,13,29,34.90
2021,08,12,13,30,34.90
2021,08,12,13,31,34.90
2021,08,12,13,32,35.00
2021,08,12,13,33,35.00
2021,08,12,13,34,35.00
2021,08,12,13,35,35.00
2021,08,12,13,36,35.00
2021,08,12,13,37,35.10
2021,08,12,13,38,35.10
2021,08,12,13,39,35.10
2021,08,12,13,40,35.20
2021,08,12,13,41,35.20
2021,08,12,13,42,35.20
2021,08,12,13,43,35.20
2021,08,12,13,44,35.30
2021,08,12,13,45,35.30
2021,08,12,13,46,35.30
2021,08,12,13,47,35.20
2021,08,12,13,48,35.20
2021,08,12,13,49,35.20
2021,08,12,13,50,35.20
2021,08,12,13,51,35.10
2021,08,12,13,52,35.10
2021,08,12,13,53,35.10
2021,08,12,13,54,35.10
2021,08,12,13,55,35.10
2021,08,12,13,56,35.10
2021,08,12,13,57,35.00
2021,08,12,13,58,34.90
2021,08,12,13,59,34.80
2021,08,12,14,00,34.80
2021,08,12,14,01,34.70
2021,08,12,14,02,34.70
2021,08,12,14,03,34.70
2021,08,12,14,04,34.80
2021,08,12,14,05,34.80
2021,08,12,14,06,34.90
2021,08,12,14,07,35.00
2021,08,12,14,08,35.10
2021,08,12,14,09,35.20
2021,08,12,14,10,35.20
2021,08,12,14,11,35.30
2021,08,12,14,12,35.30
2021,08,12,14,13,35.20
2021,08,12,14,14,35.20
2021,08,12,14,15,35.20
2021,08,12,14,16,35.10
2021,08,12,14,17,35.10
2021,08,12,14,18,35.10
2021,08,12,14,19,35.10
2021,08,12,14,20,35.20
2021,08,12,14,21,35.20
2021,08,12,14,22,35.30
2021,08,12,14,23,35.40
2021,08,12,14,24,35.50
2021,08,12,14,25,35.60
2021,08,12,14,26,35.70
2021,08,12,14,27,35.70
2021,08,12,14,28,35.80
2021,08,12,14,29,35.80
2021,08,12,14,30,35.80
2021,08,12,14,31,35.80
2021,08,12,14,32,35.80
2021,08,12,14,33,35.80
2021,08,12,14,34,35.80
2021,08,12,14,35,35.80
2021,08,12,14,36,35.70
2021,08,12,14,37,35.70
2021,08,12,14,38,35.60
2021,08,12,14,39,35.60
2021,08,12,14,40,35.50
2021,08,12,14,41,35.50
2021,08,12,14,42,35.50
2021,08,12,14,43,35.50
2021,08,12,14,44,35.60
2021,08,12,14,45,35.60
2021,08,12,14,46,35.70
2021,08,12,14,47,35.70
2021,08,12,14,48,35.80
2021,08,12,14,49,35.80
2021,08,12,14,50,35.80
2021,08,12,14,51,35.80
2021,08,12,14,52,35.90
2021,08,12,14,53,35.90
2021,08,12,14,54,35.90
2021,08,12,14,55,35.90
2021,08,12,14,56,36.00
2021,08,12,14,57,35.90
2021,08,12,14,58,35.90
2021,08,12,14,59,35.80
2021,08,12,15,00,35.80
2021,08,12,15,01,35.70
2021,08,12,15,02,35.70
2021,08,12,15,03,35.60
2021,08,12,15,04,35.60
2021,08,12,15,05,35.50
2021,08,12,15,06,35.50
2021,08,12,15,07,35.50
2021,08,12,15,08,35.40
2021,08,12,15,09,35.40
2021,08,12,15,10,35.40
2021,08,12,15,11,35.40
2021,08,12,15,12,35.40
2021,08,12,15,13,35.40
2021,08,12,15,14,35.30
2021,08,12,15,15,35.30
2021,08,12,15,16,35.30
2021,08,12,15,17,35.30
2021,08,12,15,18,35.30
2021,08,12,15,19,35.30
2021,08,12,15,20,35.30
2021,08,12,15,21,35.30
2021,08,12,15,22,35.30
2021,08,12,15,23,35.30
2021,08,12,15,24,35.20
2021,08,12,15,25,35.20
2021,08,12,15,26,35.20
2021,08,12,15,27,35.20
2021,08,12,15,28,35.20
2021,08,12,15,29,35.10
2021,08,12,15,30,35.10
2021,08,12,15,31,35.00
2021,08,12,15,32,35.00
2021,08,12,15,33,35.00
2021,08,12,15,34,34.90
2021,08,12,15,35,34.90
2021,08,12,15,36,34.90
2021,08,12,15,37,34.90
2021,08,12,15,38,34.90
2021,08,12,15,39,34.90
2021,08,12,15,40,34.90
2021,08,12,15,41,34.80
2021,08,12,15,42,34.80
2021,08,12,15,43,34.80
2021,08,12,15,44,34.80
2021,08,12,15,45,34.80
2021,08,12,15,46,34.80
2021,08,12,15,47,34.80
2021,08,12,15,48,34.80
2021,08,12,15,49,34.80
2021,08,12,15,50,34.80
2021,08,12,15,51,34.80
2021,08,12,15,52,34.80
2021,08,12,15,53,34.80
2021,08,12,15,54,34.80
2021,08,12,15,55,34.70
2021,08,12,15,56,34.70
2021,08,12,15,57,34.70
2021,08,12,15,58,34.80
2021,08,12,15,59,34.80
2021,08,12,16,00,34.80
2021,08,12,16,01,34.80
2021,08,12,16,02,34.80
2021,08,12,16,03,34.80
2021,08,12,16,04,34.80
2021,08,12,16,05,34.80
2021,08,12,16,06,34.80
2021,08,12,16,07,34.80
2021,08,12,16,08,34.80
2021,08,12,16,09,34.70
2021,08,12,16,10,34.70
2021,08,12,16,11,34.70
2021,08,12,16,12,34.70
2021,08,12,16,13,34.70
2021,08,12,16,14,34.80
2021,08,12,16,15,34.80
2021,08,12,16,16,34.80
2021,08,12,16,17,34.80
2021,08,12,16,18,34.80
2021,08,12,16,19,34.80
2021,08,12,16,20,34.80
2021,08,12,16,21,34.80
2021,08,12,16,22,34.80
2021,08,12,16,23,34.90
2021,08,12,16,24,34.80
2021,08,12,16,25,34.80
2021,08,12,16,26,34.80
2021,08,12,16,27,34.80
2021,08,12,16,28,34.80
2021,08,12,16,29,34.80
2021,08,12,16,30,34.80
2021,08,12,16,31,34.80
2021,08,12,16,32,34.80
2021,08,12,16,33,34.80
2021,08,12,16,34,34.80
2021,08,12,16,35,34.80
2021,08,12,16,36,34.80
2021,08,12,16,37,34.80
2021,08,12,16,38,34.80
2021,08,12,16,39,34.80
2021,08,12,16,40,34.70
2021,08,12,16,41,34.80
2021,08,12,16,42,34.80
2021,08,12,16,43,34.80
2021,08,12,16,44,34.80
2021,08,12,16,45,34.80
2021,08,12,16,46,34.80
2021,08,12,16,47,34.80
2021,08,12,16,48,34.80
2021,08,12,16,49,34.80
2021,08,12,16,50,34.80
2021,08,12,16,51,34.80
2021,08,12,16,52,34.80
2021,08,12,16,53,34.80
2021,08,12,16,54,34.80
2021,08,12,16,55,34.80
2021,08,12,16,56,34.80
2021,08,12,16,57,34.80
2021,08,12,16,58,34.80
2021,08,12,16,59,34.80
2021,08,12,17,00,34.80
2021,08,12,17,01,34.80
2021,08,12,17,02,34.80
2021,08,12,17,03,34.80
2021,08,12,17,04,34.80
2021,08,12,17,05,34.80
2021,08,12,17,06,34.80
2021,08,12,17,07,34.80
2021,08,12,17,08,34.80
2021,08,12,17,09,34.80
2021,08,12,17,10,34.80
2021,08,12,17,11,34.80
2021,08,12,17,12,34.80
2021,08,12,17,13,34.80
2021,08,12,17,14,34.80
2021,08,12,17,15,34.90
2021,08,12,17,16,34.90
2021,08,12,17,17,34.90
2021,08,12,17,18,34.90
2021,08,12,17,19,34.90